Date String (YYYY-MM-DD hh:mm:ss) UTC,Instrument flags,Ambient pressure (hPa),Sample flow (lpm),Bypass flow (lpm),Sample temperature (°C),Ambient temperature (°C),ASC tube jacket temperature (°C),LED temperature (°C),Box temperature (°C),Sample RH (%),Span deviation,Mass concentration (μg/m³),Mass concentration (μg/m³),Mass concentration (μg/m³)
DateTimeUTC,F1_M11,P_M11,Q1_M11,Q2_M11,T1_M11,T2_M11,T3_M11,T4_M11,T5_M11,U1_M11,ZSPAN_M11,X0_M11,X2_M11,X1_M11
2022-01-22 20:00:00,,0829.6,5.01,0.00,25.2,24.5,00.0,34.1,27.1,11.6,0000.0,0008.12,0004.90,0004.76
2022-01-22 20:01:00,,0829.5,5.01,0.00,25.2,24.5,00.0,34.1,27.1,11.4,0000.0,0008.13,0004.91,0004.77
2022-01-22 20:02:00,,0829.5,4.99,0.00,25.3,24.5,00.0,34.2,27.1,11.4,0000.0,0008.16,0004.91,0004.76
2022-01-22 20:03:00,,0829.5,4.99,0.00,25.3,24.5,00.0,34.2,27.1,11.4,0000.0,0008.25,0004.91,0004.74
2022-01-22 20:04:00,,0829.5,5.01,0.00,25.3,24.5,00.0,34.2,27.1,11.3,0000.0,0008.34,0004.94,0004.75
2022-01-22 20:05:00,,0829.5,5.00,0.00,25.3,24.5,00.0,34.2,27.1,11.4,0000.0,0008.35,0004.94,0004.75
2022-01-22 20:06:00,,0829.5,4.99,0.00,25.3,24.6,00.0,34.2,27.1,11.5,0000.0,0008.03,0004.95,0004.76
2022-01-22 20:07:00,,0829.5,5.00,0.00,25.3,24.6,00.0,34.2,27.2,11.4,0000.0,0007.66,0004.98,0004.77
2022-01-22 20:08:00,,0829.5,5.00,0.00,25.3,24.6,00.0,34.2,27.2,11.4,0000.0,0007.95,0005.00,0004.78
2022-01-22 20:09:00,,0829.5,5.00,0.00,25.3,24.6,00.0,34.2,27.2,11.5,0000.0,0007.39,0005.00,0004.79
2022-01-22 20:10:00,,0829.6,4.99,0.00,25.3,24.6,00.0,34.2,27.2,11.7,0000.0,0007.43,0005.04,0004.81
2022-01-22 20:11:00,,0829.6,5.01,0.00,25.4,24.6,00.0,34.2,27.2,11.6,0000.0,0007.66,0005.06,0004.81
2022-01-22 20:12:00,,0829.5,5.00,0.00,25.4,24.6,00.0,34.3,27.2,11.5,0000.0,0007.82,0005.07,0004.82
2022-01-22 20:13:00,,0829.5,4.99,0.00,25.4,24.6,00.0,34.3,27.2,11.4,0000.0,0007.88,0005.10,0004.82
2022-01-22 20:14:00,,0829.5,5.01,0.00,25.4,24.6,00.0,34.3,27.2,11.6,0000.0,0007.79,0005.10,0004.83
2022-01-22 20:15:00,,0829.6,4.99,0.00,25.4,24.6,00.0,34.3,27.2,11.6,0000.0,0007.74,0005.10,0004.84
2022-01-22 20:16:00,,0829.5,5.00,0.00,25.4,24.6,00.0,34.3,27.2,11.4,0000.0,0007.72,0005.09,0004.84
2022-01-22 20:17:00,,0829.5,4.99,0.00,25.4,24.6,00.0,34.3,27.2,11.4,0000.0,0007.72,0005.10,0004.85
2022-01-22 20:18:00,,0829.5,5.01,0.00,25.4,24.6,00.0,34.3,27.2,11.5,0000.0,0007.62,0005.08,0004.84
2022-01-22 20:19:00,,0829.5,5.00,0.00,25.4,24.6,00.0,34.3,27.2,11.5,0000.0,0007.18,0005.05,0004.84
2022-01-22 20:20:00,,0829.4,5.01,0.00,25.4,24.6,00.0,34.3,27.2,11.5,0000.0,0007.65,0005.04,0004.83
2022-01-22 20:21:00,,0829.4,5.00,0.00,25.4,24.6,00.0,34.3,27.2,11.8,0000.0,0007.66,0005.02,0004.82
2022-01-22 20:22:00,,0829.4,4.99,0.00,25.4,24.6,00.0,34.3,27.2,11.6,0000.0,0007.41,0004.98,0004.81
2022-01-22 20:23:00,,0829.4,5.01,0.00,25.4,24.6,00.0,34.3,27.2,11.5,0000.0,0007.17,0004.96,0004.80
2022-01-22 20:24:00,,0829.4,5.01,0.00,25.4,24.6,00.0,34.3,27.2,11.6,0000.0,0007.10,0004.94,0004.80
2022-01-22 20:25:00,,0829.3,4.99,0.00,25.4,24.6,00.0,34.3,27.2,11.7,0000.0,0007.11,0004.94,0004.81
2022-01-22 20:26:00,,0829.3,5.00,0.00,25.4,24.6,00.0,34.3,27.2,11.7,0000.0,0007.33,0004.96,0004.81
2022-01-22 20:27:00,,0829.3,5.01,0.00,25.4,24.7,00.0,34.3,27.3,11.9,0000.0,0007.65,0004.97,0004.81
2022-01-22 20:28:00,,0829.3,5.01,0.00,25.4,24.7,00.0,34.4,27.3,11.7,0000.0,0008.08,0004.98,0004.81
2022-01-22 20:29:00,,0829.3,5.00,0.00,25.4,24.7,00.0,34.4,27.3,11.7,0000.0,0008.15,0004.99,0004.82
2022-01-22 20:30:00,,0829.2,5.00,0.00,25.4,24.7,00.0,34.4,27.3,11.5,0000.0,0008.23,0005.01,0004.83
2022-01-22 20:31:00,,0829.3,5.01,0.00,25.4,24.7,00.0,34.4,27.3,11.4,0000.0,0007.85,0005.03,0004.85
2022-01-22 20:32:00,,0829.3,5.00,0.00,25.5,24.7,00.0,34.4,27.3,11.7,0000.0,0007.88,0005.06,0004.87
2022-01-22 20:33:00,,0829.4,4.99,0.00,25.5,24.7,00.0,34.4,27.3,11.8,0000.0,0008.27,0005.10,0004.88
2022-01-22 20:34:00,,0829.4,5.01,0.00,25.5,24.7,00.0,34.4,27.4,11.8,0000.0,0008.30,0005.10,0004.89
2022-01-22 20:35:00,,0829.4,5.01,0.00,25.5,24.7,00.0,34.4,27.4,11.8,0000.0,0008.25,0005.10,0004.88
2022-01-22 20:36:00,,0829.4,5.00,0.00,25.5,24.8,00.0,34.4,27.4,11.9,0000.0,0008.64,0005.11,0004.88
2022-01-22 20:37:00,,0829.4,4.99,0.00,25.5,24.8,00.0,34.4,27.4,11.9,0000.0,0009.25,0005.11,0004.88
2022-01-22 20:38:00,,0829.4,5.01,0.00,25.5,24.8,00.0,34.4,27.4,11.6,0000.0,0009.19,0005.11,0004.89
2022-01-22 20:39:00,,0829.4,5.01,0.00,25.6,24.8,00.0,34.4,27.4,11.7,0000.0,0008.88,0005.12,0004.89
2022-01-22 20:40:00,,0829.3,5.00,0.00,25.6,24.8,00.0,34.5,27.5,11.8,0000.0,0009.76,0005.12,0004.88
2022-01-22 20:41:00,,0829.3,5.00,0.00,25.6,24.9,00.0,34.5,27.4,11.7,0000.0,0010.41,0005.14,0004.88
2022-01-22 20:42:00,,0829.3,5.00,0.00,25.6,24.9,00.0,34.5,27.5,11.6,0000.0,0010.41,0005.14,0004.87
2022-01-22 20:43:00,,0829.3,5.01,0.00,25.6,24.9,00.0,34.5,27.5,11.8,0000.0,0010.29,0005.10,0004.86
2022-01-22 20:44:00,,0829.2,5.00,0.00,25.6,24.9,00.0,34.5,27.5,12.0,0000.0,0010.40,0005.09,0004.86
2022-01-22 20:45:00,,0829.3,5.00,0.00,25.6,24.9,00.0,34.5,27.5,11.7,0000.0,0010.55,0005.08,0004.85
2022-01-22 20:46:00,,0829.3,4.99,0.00,25.7,24.9,00.0,34.5,27.5,11.5,0000.0,0010.61,0005.10,0004.86
2022-01-22 20:47:00,,0829.4,4.99,0.00,25.7,24.9,00.0,34.5,27.5,11.6,0000.0,0010.23,0005.09,0004.88
2022-01-22 20:48:00,,0829.3,5.02,0.00,25.7,24.9,00.0,34.6,27.5,11.4,0000.0,0009.43,0005.08,0004.88
2022-01-22 20:49:00,,0829.4,4.99,0.00,25.7,24.9,00.0,34.6,27.5,11.4,0000.0,0009.25,0005.07,0004.88
2022-01-22 20:50:00,,0829.4,5.00,0.00,25.7,24.9,00.0,34.6,27.5,11.6,0000.0,0009.30,0005.06,0004.88
2022-01-22 20:51:00,,0829.3,5.01,0.00,25.7,24.9,00.0,34.6,27.5,11.5,0000.0,0008.75,0005.06,0004.89
2022-01-22 20:52:00,,0829.4,4.99,0.00,25.7,24.9,00.0,34.6,27.5,11.4,0000.0,0008.12,0005.06,0004.89
2022-01-22 20:53:00,,0829.4,4.99,0.00,25.7,25.0,00.0,34.6,27.6,11.4,0000.0,0008.14,0005.07,0004.89
2022-01-22 20:54:00,,0829.3,5.00,0.00,25.7,25.0,00.0,34.6,27.6,11.3,0000.0,0008.16,0005.09,0004.91
2022-01-22 20:55:00,,0829.3,4.99,0.00,25.7,25.0,00.0,34.6,27.6,11.1,0000.0,0007.76,0005.11,0004.91
2022-01-22 20:56:00,,0829.3,5.01,0.00,25.7,25.0,00.0,34.6,27.6,11.2,0000.0,0007.62,0005.13,0004.91
2022-01-22 20:57:00,,0829.3,5.01,0.00,25.7,25.0,00.0,34.6,27.6,11.2,0000.0,0007.56,0005.13,0004.91
2022-01-22 20:58:00,,0829.2,5.00,0.00,25.8,25.0,00.0,34.6,27.6,11.1,0000.0,0007.54,0005.12,0004.90
2022-01-22 20:59:00,,0829.3,5.00,0.00,25.8,25.0,00.0,34.6,27.6,11.4,0000.0,0007.54,0005.10,0004.88
